{"data":{"norad_id":60548,"epoch":"2026-05-25T04:02:47.345856Z","epoch_age_seconds":50638,"freshness":"FRESH","line1":"1 60548U 24149CJ  26145.16860354  .00003545  00000+0  28314-3 0  9991","line2":"2 60548  97.7197 224.4460 0000430 130.0039 230.1223 15.00902357 96752","mean_motion":15.00902357,"eccentricity":4.3e-5,"inclination_deg":97.7197,"raan_deg":224.446,"arg_perigee_deg":130.0039,"mean_anomaly_deg":230.1223,"bstar":0.00028314,"rev_number":9675,"period_min":95.942283872368,"perigee_km":563.81393582578,"apogee_km":564.4109692787,"semimajor_km":6942.2494525522,"source":"CELESTRAK","updated_at":"2026-05-25T13:38:02.151375Z"}}